[[{"header":{"parameterUnit":"m.s-1","parameterCategory":2,"la1":30.2991,"la2":30.254,"lo1":-89.0895,"lo2":-89.0444,"dy":0.0017,"dx":0.0017,"nx":28,"ny":28,"refTime":"2023-08-12T09:00:00:Z","depth":"0","parameterNumber":2,"parameterNumberName":"U-component_of_CURRENTS"},"data":[0,0,0,0,0,0,0,0,0,0,0,0,0,0,0,0,0,0,0,0,0,0,0,0,0,0,0,0,0,0,0,0,0,0,0,0,0,0,0,0,0,0,0,0,0,0,0,0,0,0,0,0,0,0,0,0,0,0,0.4773,0.4775,0,0.4837,0.4836,0.4836,0.4744,0.4742,0.474,0.4738,0.4738,0.4739,0.4741,0,0,0,0,0,0,0,0,0,0,0,0,0,0.4505,0.4509,0.4772,0.4775,0.4777,0.4837,0.4836,0.4835,0.4744,0.4742,0.4739,0.4737,0.4737,0.4739,0.4741,0,0,0,0,0,0,0,0,0,0,0,0,0,0.4586,0.4511,0.4772,0.4749,0.4749,0.4837,0.4836,0.4835,0.4744,0.4741,0.4739,0.4736,0.4736,0.4739,0.4742,0.4814,0,0,0.475,0.4751,0,0,0,0,0,0,0,0,0.4582,0.4594,0.475,0.4751,0.4751,0.4792,0.4742,0.483,0.4745,0.473,0.4738,0.4735,0.4762,0.4762,0.476,0.4814,0.4814,0.475,0.4751,0.4753,0.4753,0,0,0,0,0,0,0,0.4576,0.4591,0.4783,0.4753,0.4754,0.4714,0.4721,0.4757,0.4748,0.4731,0.4729,0.476,0.4759,0.4758,0.476,0.4814,0.475,0.4752,0.4754,0.4755,0.498,0.4984,0,0,0,0,0,0,0.4606,0.4587,0.4781,0.4786,0.4674,0.4723,0.473,0.477,0.4749,0.4748,0.4763,0.4756,0.4755,0.4757,0.4759,0.4856,0.4753,0.4755,0.4756,0.4976,0.4981,0.4986,0,0,0,0,0,0,0.46,0.4623,0.4779,0.4698,0.4717,0.4733,0.4776,0.4773,0.4762,0.4777,0.477,0.4756,0.4753,0.4756,0.4814,0.4854,0.4756,0.4759,0.4971,0.4977,0.4984,0.5042,0,0,0,0,0,0,0.4592,0.4621,0.4654,0.4701,0.4724,0.4833,0.4781,0.4777,0.4794,0.4785,0.4771,0.4767,0.4751,0.4811,0.4817,0.4856,0.4761,0.4965,0.4974,0.4981,0.5035,0.505,0.5063,0,0,0,0,0,0.4583,0.4662,0.4655,0.4679,0.4771,0.4836,0.4842,0.4831,0.4797,0.4805,0.4813,0.4767,0.4868,0.4817,0.4823,0.4863,0.4961,0.4971,0.4981,0.5028,0.5047,0.5063,0,0,0,0,0,0,0.4585,0.4664,0.4655,0.4759,0.479,0.4826,0.4858,0.4841,0.4851,0.4841,0.4821,0.4823,0.4905,0.4891,0.4835,0.4963,0.4909,0.4921,0.4943,0.4961,0.4975,0.4991,0.4763,0,0,0,0,0,0.4602,0.4664,0.4721,0.48,0.4821,0.4831,0.4856,0.4846,0.4874,0.4871,0.4879,0.4902,0.4957,0.4958,0.5013,0.5065,0.5098,0.5102,0.5117,0.5128,0.5153,0.5248,0.5271,0.5019,0.5018,0.5018,0,0,0.4626,0.4682,0.4715,0.4801,0.4822,0.4867,0.4834,0.4883,0.4912,0.4878,0.4931,0.4969,0.4996,0.5071,0.5102,0.5049,0.5224,0.5141,0.5149,0.5168,0.526,0.5284,0.5306,0.5025,0.5024,0.5023,0,0,0.4695,0.4752,0.4803,0.4836,0.489,0.4907,0.4922,0.4963,0.4965,0.5037,0.5035,0.5111,0.516,0.52,0.5221,0.5355,0.5323,0.5352,0.5396,0.5487,0.5508,0.5526,0.5611,0.5636,0.5323,0.5323,0.5323,0,0.4712,0.4785,0.4828,0.4879,0.4906,0.4926,0.4959,0.4997,0.5051,0.5064,0.5067,0.5199,0.5238,0.5318,0.5377,0.5387,0.5416,0.5311,0.5501,0.552,0.5538,0.5621,0.5648,0.5327,0.5327,0.5326,0.5326,0,0.4792,0.4845,0.489,0.4947,0.4985,0.503,0.5081,0.5119,0.5139,0.5165,0.5267,0.5346,0.5406,0.5445,0.5456,0.5588,0.5564,0.5529,0.5442,0.5566,0.5647,0.5674,0.5333,0.5332,0.533,0.5329,0,0,0.4813,0.4917,0.4921,0.4925,0.5009,0.5035,0.5118,0.517,0.5193,0.5289,0.5332,0.5494,0.5515,0.555,0.5573,0.5662,0.5847,0.5643,0.5646,0.5701,0.6039,0.5966,0.5987,0.5814,0.5819,0.5823,0.6046,0,0.4834,0.4912,0.4966,0.5013,0.5039,0.5085,0.5145,0.5198,0.5257,0.5321,0.542,0.5496,0.5553,0.5577,0.5693,0.5809,0.5919,0.579,0.5935,0.5941,0.5838,0.6018,0.5784,0.5958,0.6072,0.6077,0.608,0,0.4847,0.4899,0.4943,0.4993,0.5006,0.5044,0.5092,0.515,0.5258,0.5305,0.5408,0.5477,0.5654,0.5671,0.5955,0.5854,0.5979,0.6069,0.6077,0.6008,0.5919,0.5856,0.6002,0.5729,0.6122,0.6118,0.6115,0,0.4765,0.4857,0.4876,0.4899,0.4986,0.4999,0.5039,0.5129,0.5161,0.5287,0.5331,0.552,0.5617,0.5818,0.6046,0.6,0.6339,0.6282,0.6341,0.6335,0.6172,0.6143,0.6048,0.6507,0.6507,0.6506,0.6505,0,0.4739,0.4744,0.4832,0.4841,0.4846,0.4921,0.4935,0.5007,0.5102,0.5153,0.5305,0.5402,0.5662,0.5869,0.6066,0.6305,0.6366,0.6411,0.641,0.6188,0.6159,0.5938,0.5825,0.6514,0.6513,0.6511,0.6509,0,0.4631,0.4698,0.471,0.4789,0.4804,0.4795,0.4856,0.4878,0.4982,0.5062,0.5104,0.5343,0.5617,0.587,0.6206,0.6313,0.6361,0.661,0.6334,0.6296,0.6047,0.5948,0.5826,0.5683,0.6708,0.6708,0.6708,0,0.4585,0.4584,0.464,0.4641,0.4672,0.4682,0.4694,0.4797,0.4839,0.5038,0.5083,0.5346,0.5517,0.5964,0.6243,0.6554,0.6345,0.6465,0.6356,0.6047,0.5937,0.5742,0.5615,0.6177,0.6173,0.6169,0.6166,0,0.4493,0.4505,0.4528,0.4534,0.454,0.454,0.4583,0.4593,0.4733,0.4812,0.4977,0.5118,0.5549,0.5744,0.6122,0.631,0.6088,0.6397,0.6148,0.5599,0.5312,0.5163,0.6011,0.6134,0.6137,0.6139,0.6141,0.6143,0.4414,0.4401,0.4433,0.4424,0.4421,0.4404,0.4365,0.4439,0.4477,0.4586,0.4821,0.4967,0.5243,0.575,0.5887,0.5875,0.5931,0.5719,0.5661,0.5518,0.5251,0.6035,0.6095,0.6098,0.61,0.6103,0.6105,0,0.4336,0.434,0.4327,0.4304,0.4246,0.4293,0.429,0.4245,0.4248,0.4413,0.4539,0.4712,0.4871,0.5095,0.5249,0.5121,0.5002,0.4964,0.4594,0.4539,0.5297,0.5135,0.4898,0.4898,0.4898,0.4898,0.4899,0.4899,0.4307,0.4275,0.427,0.4153,0.4118,0.402,0.3994,0.3954,0.4015,0.4003,0.4048,0.4188,0.437,0.4482,0.4379,0.4353,0.4021,0.3903,0.3901,0.4345,0.4407,0.4466,0.4283,0.387,0.3869,0.2977,0.2969,0.2964]},{"header":{"parameterUnit":"m.s-1","parameterCategory":2,"la1":30.2991,"la2":30.254,"lo1":-89.0895,"lo2":-89.0444,"dy":0.0017,"dx":0.0017,"nx":28,"ny":28,"refTime":"2023-08-12T09:00:00:Z","depth":"0","parameterNumber":3,"parameterNumberName":"V-component_of_CURRENTS"},"data":[0,0,0,0,0,0,0,0,0,0,0,0,0,0,0,0,0,0,0,0,0,0,0,0,0,0,0,0,0,0,0,0,0,0,0,0,0,0,0,0,0,0,0,0,0,0,0,0,0,0,0,0,0,0,0,0,0,0,0.0697,0.0697,0,0.0673,0.0673,0.0672,0.0562,0.056,0.0558,0.0556,0.0479,0.0479,0.0478,0,0,0,0,0,0,0,0,0,0,0,0,0,0.0579,0.0581,0.0697,0.0697,0.0697,0.0674,0.0672,0.0671,0.0562,0.056,0.0558,0.0556,0.0479,0.0479,0.0478,0,0,0,0,0,0,0,0,0,0,0,0,0,0.0593,0.0582,0.0697,0.0645,0.0641,0.0674,0.0672,0.0671,0.0563,0.056,0.0557,0.0554,0.0479,0.0479,0.0478,0.0533,0,0,0.0477,0.0477,0,0,0,0,0,0,0,0,0.0593,0.0597,0.0653,0.0649,0.0644,0.0624,0.0603,0.0625,0.0564,0.0585,0.0556,0.0553,0.0529,0.0525,0.0517,0.0529,0.0526,0.0477,0.0477,0.0476,0.0476,0,0,0,0,0,0,0,0.0592,0.0597,0.068,0.0653,0.0649,0.0601,0.06,0.0606,0.0567,0.0583,0.0577,0.0587,0.0525,0.0518,0.0514,0.0525,0.0477,0.0477,0.0476,0.0476,0.0593,0.0596,0,0,0,0,0,0,0.0617,0.0597,0.0681,0.068,0.0619,0.0606,0.0604,0.0628,0.0568,0.0558,0.0589,0.0582,0.052,0.0515,0.0511,0.0593,0.0476,0.0476,0.0476,0.0589,0.0593,0.0597,0,0,0,0,0,0,0.0615,0.0625,0.0682,0.0642,0.0647,0.0613,0.0639,0.0629,0.0613,0.0575,0.0562,0.0583,0.0517,0.0512,0.0536,0.0588,0.0476,0.0476,0.0585,0.0591,0.0595,0.0743,0,0,0,0,0,0,0.0612,0.0625,0.0656,0.0645,0.0651,0.0716,0.0642,0.0631,0.0628,0.0617,0.0566,0.0556,0.0515,0.0538,0.0536,0.0585,0.0475,0.0581,0.0588,0.0594,0.0734,0.0752,0.0768,0,0,0,0,0,0.0608,0.0689,0.0658,0.0668,0.0693,0.0719,0.0717,0.0676,0.0631,0.0645,0.0616,0.0557,0.0575,0.0541,0.0538,0.0588,0.0578,0.0586,0.0593,0.0726,0.0748,0.0768,0,0,0,0,0,0,0.0689,0.0686,0.0651,0.0734,0.0724,0.0703,0.073,0.0689,0.0677,0.0665,0.0603,0.0595,0.0635,0.0602,0.0564,0.0643,0.0567,0.0574,0.0669,0.069,0.0707,0.074,0.0475,0,0,0,0,0,0.0715,0.075,0.0736,0.08,0.0799,0.0757,0.0763,0.0732,0.0721,0.0709,0.0685,0.0666,0.067,0.0669,0.0669,0.0717,0.068,0.0748,0.0765,0.078,0.0808,0.0805,0.0823,0.0622,0.0622,0.0622,0,0,0.0766,0.077,0.0792,0.0815,0.0799,0.0828,0.0752,0.0777,0.0804,0.071,0.0756,0.0729,0.0698,0.0749,0.0763,0.0722,0.0818,0.079,0.0802,0.0823,0.0814,0.0834,0.0851,0.0627,0.0626,0.0625,0,0,0.0868,0.0884,0.092,0.0921,0.0913,0.0901,0.091,0.0896,0.0889,0.0932,0.0873,0.089,0.0893,0.089,0.0883,0.1004,0.0911,0.099,0.1101,0.1098,0.1114,0.1127,0.1096,0.1106,0.0996,0.0996,0.0996,0,0.092,0.0966,0.0942,0.0972,0.0991,0.0937,0.098,0.0989,0.099,0.1007,0.0969,0.1,0.0971,0.1027,0.1066,0.1044,0.1007,0.1019,0.1119,0.1132,0.1143,0.1107,0.1116,0.1004,0.1003,0.1002,0.1002,0,0.1017,0.1057,0.1093,0.1101,0.1127,0.1167,0.1166,0.1196,0.1184,0.1182,0.1239,0.1215,0.1223,0.1223,0.1181,0.1255,0.1189,0.1139,0.1061,0.1172,0.1127,0.1134,0.1016,0.1013,0.101,0.1008,0,0,0.1112,0.1146,0.1154,0.1164,0.1193,0.122,0.1299,0.1343,0.1384,0.1402,0.146,0.1488,0.1452,0.1446,0.1395,0.1404,0.1449,0.1314,0.131,0.1275,0.1415,0.1343,0.1341,0.14,0.1402,0.1404,0.1347,0,0.1176,0.1247,0.1261,0.1342,0.1372,0.1377,0.1453,0.1491,0.1517,0.1571,0.1564,0.1597,0.1541,0.1536,0.1548,0.1475,0.1474,0.1468,0.1321,0.1317,0.1233,0.1351,0.1315,0.126,0.1352,0.1353,0.1354,0,0.1242,0.1278,0.1358,0.1427,0.1444,0.1497,0.1584,0.1644,0.1713,0.1732,0.1773,0.1746,0.1786,0.1702,0.1669,0.1658,0.1562,0.1499,0.1494,0.1385,0.1259,0.1168,0.1267,0.0914,0.1363,0.1362,0.1361,0,0.1267,0.1349,0.141,0.1432,0.1509,0.1558,0.1607,0.1687,0.1747,0.1824,0.1864,0.1892,0.1897,0.1828,0.1719,0.1684,0.1654,0.1575,0.1422,0.1413,0.1338,0.1319,0.1077,0.1548,0.1548,0.1548,0.1548,0,0.1318,0.1366,0.1419,0.1449,0.153,0.1581,0.168,0.1736,0.1831,0.1919,0.1932,0.2005,0.1928,0.1896,0.1774,0.1639,0.1694,0.1477,0.1415,0.1387,0.1374,0.1024,0.0895,0.1546,0.1547,0.1547,0.1547,0,0.1321,0.1363,0.1422,0.1503,0.1534,0.1583,0.1701,0.1781,0.1865,0.1979,0.2006,0.2088,0.2072,0.1967,0.1856,0.1702,0.1416,0.1497,0.1462,0.1398,0.0911,0.0796,0.0621,0.0522,0.1324,0.1323,0.1321,0,0.1325,0.1352,0.143,0.1469,0.1502,0.1587,0.1664,0.1777,0.1873,0.204,0.2106,0.2142,0.2223,0.205,0.1809,0.1595,0.1352,0.1339,0.1279,0.0908,0.0733,0.0677,0.0604,0.1227,0.1225,0.1223,0.1221,0,0.1314,0.1332,0.1375,0.1452,0.1526,0.1626,0.1744,0.1829,0.1986,0.212,0.2308,0.2398,0.2263,0.2096,0.1773,0.1585,0.1121,0.1291,0.093,0.0678,0.0585,0.0451,0.1206,0.1206,0.1207,0.1208,0.1209,0.121,0.1282,0.1302,0.1357,0.1432,0.1532,0.167,0.1767,0.1936,0.2127,0.2394,0.2464,0.2684,0.2309,0.1923,0.1595,0.0875,0.0996,0.0636,0.0538,0.0522,0.04,0.1112,0.1023,0.1023,0.1023,0.1024,0.1024,0,0.1233,0.1274,0.1342,0.145,0.1564,0.1631,0.1832,0.198,0.2231,0.2545,0.2767,0.2702,0.2202,0.1638,0.0714,0.0203,0.0079,-0.0097,-0.0218,-0.0244,0.0381,0.034,0.0071,0.0071,0.0072,0.0072,0.0072,0.0073,0.1206,0.1244,0.1292,0.145,0.155,0.173,0.1854,0.2117,0.2383,0.2763,0.2948,0.3056,0.2461,0.0797,-0.0399,-0.0621,-0.0931,-0.0951,-0.1104,-0.0774,-0.0715,-0.0659,-0.0737,-0.1227,-0.1228,-0.1685,-0.1691,-0.1695]}],[{"header":{"parameterUnit":"m.s-1","parameterCategory":2,"la1":30.2991,"la2":30.254,"lo1":-89.0895,"lo2":-89.0444,"dy":0.0017,"dx":0.0017,"nx":28,"ny":28,"refTime":"2023-08-12T09:00:00:Z","depth":"2","parameterNumber":2,"parameterNumberName":"U-component_of_CURRENTS"},"data":[0,0,0,0,0,0,0,0,0,0,0,0,0,0,0,0,0,0,0,0,0,0,0,0,0,0,0,0,0,0,0,0,0,0,0,0,0,0,0,0,0,0,0,0,0,0,0,0,0,0,0,0,0,0,0,0,0,0,0.3081,0.3083,0,0.3202,0.3203,0.3204,0.3225,0.3225,0.3224,0.3224,0.3282,0.3284,0.3286,0,0,0,0,0,0,0,0,0,0,0,0,0,0.2941,0.2943,0.3081,0.3083,0.3085,0.3202,0.3203,0.3204,0.3225,0.3225,0.3224,0.3223,0.3282,0.3284,0.3287,0,0,0,0,0,0,0,0,0,0,0,0,0,0.3021,0.2943,0.3081,0.3114,0.3118,0.3201,0.3203,0.3204,0.3225,0.3224,0.3224,0.3223,0.3281,0.3284,0.3287,0.3322,0,0,0.3296,0.3298,0,0,0,0,0,0,0,0,0.3016,0.3025,0.3107,0.3112,0.3117,0.3202,0.3175,0.3242,0.3225,0.3179,0.3223,0.3223,0.3254,0.3259,0.3277,0.3325,0.3327,0.3297,0.3299,0.33,0.3301,0,0,0,0,0,0,0,0.301,0.3021,0.3124,0.3109,0.3115,0.3147,0.3156,0.3188,0.3214,0.3183,0.3186,0.3208,0.3255,0.3274,0.3278,0.3328,0.3297,0.3299,0.3301,0.3302,0.3494,0.3497,0,0,0,0,0,0,0.3004,0.3015,0.312,0.3128,0.3069,0.315,0.3161,0.3171,0.3215,0.3223,0.3209,0.3209,0.3269,0.3275,0.3281,0.3402,0.33,0.3303,0.3304,0.349,0.3494,0.3498,0,0,0,0,0,0,0.3,0.3011,0.3115,0.3079,0.3095,0.3154,0.3166,0.3174,0.3214,0.3237,0.3242,0.3242,0.3269,0.3276,0.3345,0.3401,0.3304,0.3307,0.3487,0.3492,0.3496,0.3596,0,0,0,0,0,0,0.2995,0.3009,0.3024,0.3078,0.3097,0.3177,0.3167,0.3177,0.323,0.3231,0.3267,0.3271,0.3269,0.3341,0.3348,0.3404,0.3309,0.3483,0.3489,0.3495,0.3589,0.3604,0.3616,0,0,0,0,0,0.2989,0.3008,0.3023,0.3037,0.3112,0.3179,0.3192,0.3227,0.3232,0.3258,0.3295,0.327,0.3384,0.3346,0.3354,0.3412,0.348,0.3487,0.3494,0.3582,0.3601,0.3616,0,0,0,0,0,0,0.2945,0.3014,0.3032,0.3067,0.3127,0.3184,0.3218,0.3245,0.3296,0.3304,0.3312,0.332,0.3398,0.3399,0.3357,0.3487,0.3428,0.3437,0.3492,0.351,0.3523,0.3458,0.3312,0,0,0,0,0,0.2946,0.2979,0.305,0.3078,0.3113,0.3172,0.3208,0.3239,0.329,0.3312,0.3343,0.3384,0.3434,0.3465,0.3498,0.3574,0.3578,0.3618,0.3632,0.3643,0.3598,0.3724,0.3745,0.3522,0.3522,0.3521,0,0,0.2928,0.2979,0.2992,0.3073,0.312,0.3174,0.319,0.3257,0.3302,0.3311,0.3384,0.343,0.3464,0.3548,0.3583,0.3557,0.3711,0.3653,0.3662,0.3609,0.3734,0.3755,0.3774,0.3527,0.3526,0.3525,0,0,0.2916,0.2967,0.2993,0.3059,0.3152,0.3193,0.3218,0.3302,0.334,0.3423,0.3448,0.3523,0.3598,0.3638,0.3665,0.3776,0.3776,0.381,0.3834,0.396,0.3978,0.3994,0.4026,0.4044,0.3823,0.3824,0.3824,0,0.2891,0.294,0.3011,0.3073,0.3126,0.3202,0.3248,0.3308,0.3403,0.3454,0.3453,0.3606,0.3629,0.374,0.377,0.3803,0.3851,0.3768,0.3977,0.3993,0.4008,0.4036,0.4055,0.3829,0.3829,0.3828,0.3828,0,0.2915,0.2961,0.2991,0.3084,0.3153,0.321,0.3308,0.3382,0.3441,0.3506,0.3634,0.3691,0.378,0.382,0.3817,0.3953,0.3944,0.3978,0.3928,0.4036,0.4059,0.4077,0.3838,0.3836,0.3834,0.3832,0,0,0.2813,0.2968,0.2976,0.3028,0.3167,0.3221,0.3322,0.3432,0.3504,0.3614,0.3714,0.3808,0.3862,0.3893,0.3942,0.4025,0.4166,0.4042,0.4047,0.4057,0.4403,0.4139,0.4133,0.4273,0.4277,0.428,0.4375,0,0.2796,0.2901,0.298,0.3064,0.3129,0.3246,0.3325,0.3451,0.3555,0.3678,0.3787,0.3896,0.3892,0.3959,0.405,0.4154,0.4219,0.4132,0.4305,0.4306,0.405,0.4147,0.3839,0.3876,0.4392,0.4395,0.4397,0,0.2783,0.2864,0.2946,0.3078,0.3113,0.317,0.3332,0.342,0.3616,0.3707,0.3858,0.3954,0.4104,0.4083,0.4292,0.4257,0.4308,0.4361,0.4369,0.4081,0.4075,0.3854,0.3888,0.4426,0.4424,0.4422,0.442,0,0.2702,0.2827,0.2889,0.2945,0.3108,0.3162,0.3249,0.3433,0.3521,0.3747,0.3844,0.4046,0.4154,0.4296,0.4408,0.4388,0.461,0.4614,0.4404,0.4386,0.4119,0.4068,0.4721,0.4721,0.4721,0.472,0.472,0,0.2657,0.2706,0.2856,0.2901,0.2961,0.3114,0.3206,0.3328,0.3521,0.3636,0.3853,0.3975,0.422,0.4383,0.4463,0.4479,0.4678,0.4378,0.4399,0.4141,0.4093,0.4561,0.4541,0.4724,0.4723,0.4722,0.4722,0,0.2553,0.2661,0.2728,0.2881,0.2925,0.2974,0.3147,0.3226,0.343,0.3593,0.3676,0.3966,0.4181,0.4371,0.4596,0.4503,0.4581,0.453,0.4148,0.4115,0.4243,0.4228,0.4279,0.4271,0.4264,0.4258,0.4253,0,0.2508,0.2541,0.2672,0.2706,0.2764,0.2871,0.2941,0.3149,0.3242,0.3569,0.3629,0.3909,0.4032,0.4235,0.422,0.4273,0.448,0.3934,0.3782,0.4185,0.4203,0.4199,0.4193,0.35,0.3489,0.348,0.3473,0,0.2397,0.2442,0.2494,0.257,0.2631,0.2703,0.2827,0.2893,0.3153,0.3294,0.3503,0.3631,0.3794,0.3708,0.3734,0.3726,0.3896,0.3738,0.4373,0.361,0.3445,0.3462,0.3485,0.3395,0.3403,0.3408,0.3413,0.3416,0.2284,0.2281,0.2354,0.2418,0.2471,0.2527,0.2556,0.2703,0.282,0.299,0.321,0.3291,0.3317,0.3179,0.314,0.3128,0.3334,0.3203,0.3235,0.3276,0.3119,0.2945,0.277,0.2774,0.2777,0.278,0.2783,0,0.2145,0.2181,0.2216,0.2269,0.2261,0.2364,0.2459,0.2478,0.2553,0.2708,0.2806,0.2576,0.2513,0.2673,0.2465,0.2356,0.2401,0.2332,0.2408,0.2483,0.2551,0.2364,0.1812,0.1809,0.1807,0.1805,0,0,0.207,0.2062,0.2102,0.2059,0.2096,0.2064,0.2096,0.2141,0.2228,0.2187,0.22,0.2353,0.2502,0.2109,0.2034,0.1926,0.2212,0.186,0.263,0.2794,0.286,0.3026,0.2815,0,0,0,0,0]},{"header":{"parameterUnit":"m.s-1","parameterCategory":2,"la1":30.2991,"la2":30.254,"lo1":-89.0895,"lo2":-89.0444,"dy":0.0017,"dx":0.0017,"nx":28,"ny":28,"refTime":"2023-08-12T09:00:00:Z","depth":"2","parameterNumber":3,"parameterNumberName":"V-component_of_CURRENTS"},"data":[0,0,0,0,0,0,0,0,0,0,0,0,0,0,0,0,0,0,0,0,0,0,0,0,0,0,0,0,0,0,0,0,0,0,0,0,0,0,0,0,0,0,0,0,0,0,0,0,0,0,0,0,0,0,0,0,0,0,-0.0748,-0.0748,0,-0.0774,-0.0774,-0.0774,-0.0785,-0.0784,-0.0784,-0.0784,-0.0847,-0.0849,-0.0851,0,0,0,0,0,0,0,0,0,0,0,0,0,-0.0764,-0.0764,-0.0748,-0.0748,-0.0749,-0.0774,-0.0774,-0.0774,-0.0785,-0.0784,-0.0784,-0.0784,-0.0847,-0.0849,-0.0851,0,0,0,0,0,0,0,0,0,0,0,0,0,-0.0771,-0.0764,-0.0748,-0.0756,-0.0757,-0.0774,-0.0774,-0.0774,-0.0785,-0.0784,-0.0784,-0.0784,-0.0846,-0.0849,-0.0851,-0.0871,0,0,-0.0859,-0.086,0,0,0,0,0,0,0,0,-0.077,-0.077,-0.0755,-0.0756,-0.0757,-0.0775,-0.0803,-0.0808,-0.0785,-0.0775,-0.0784,-0.0784,-0.0827,-0.0831,-0.0836,-0.0874,-0.0876,-0.086,-0.0861,-0.0862,-0.0863,0,0,0,0,0,0,0,-0.077,-0.0769,-0.0759,-0.0755,-0.0757,-0.0778,-0.0778,-0.0804,-0.0802,-0.0776,-0.0776,-0.0779,-0.0827,-0.0833,-0.0838,-0.0877,-0.086,-0.0862,-0.0864,-0.0865,-0.089,-0.0889,0,0,0,0,0,0,-0.0763,-0.0768,-0.0758,-0.0759,-0.0763,-0.0778,-0.0778,-0.077,-0.0801,-0.0805,-0.0779,-0.0779,-0.0829,-0.0835,-0.084,-0.0805,-0.0862,-0.0865,-0.0866,-0.0891,-0.089,-0.0889,0,0,0,0,0,0,-0.0763,-0.0761,-0.0757,-0.0765,-0.0766,-0.0777,-0.0768,-0.0771,-0.077,-0.0803,-0.0808,-0.0775,-0.0829,-0.0836,-0.084,-0.081,-0.0866,-0.0868,-0.0892,-0.0891,-0.0889,-0.0774,0,0,0,0,0,0,-0.0763,-0.0761,-0.0758,-0.0764,-0.0765,-0.0751,-0.0769,-0.0771,-0.0772,-0.0772,-0.0802,-0.0808,-0.0829,-0.0835,-0.0842,-0.0815,-0.087,-0.0893,-0.0892,-0.089,-0.0779,-0.0769,-0.076,0,0,0,0,0,-0.0763,-0.075,-0.0757,-0.0756,-0.0758,-0.075,-0.0752,-0.0761,-0.0772,-0.0762,-0.0776,-0.0806,-0.083,-0.0837,-0.0845,-0.0817,-0.0894,-0.0892,-0.089,-0.0783,-0.0771,-0.076,0,0,0,0,0,0,-0.0746,-0.075,-0.0758,-0.0744,-0.0743,-0.0751,-0.0746,-0.0756,-0.0761,-0.0759,-0.0795,-0.0801,-0.0794,-0.0826,-0.0833,-0.0822,-0.0868,-0.0867,-0.0783,-0.0772,-0.0763,-0.071,-0.0873,0,0,0,0,0,-0.0744,-0.0735,-0.0742,-0.0727,-0.0726,-0.0737,-0.0738,-0.0739,-0.0744,-0.0746,-0.0765,-0.0785,-0.0795,-0.0798,-0.0817,-0.0812,-0.0828,-0.0802,-0.0792,-0.0784,-0.0748,-0.0742,-0.0728,-0.0882,-0.0882,-0.0882,0,0,-0.0732,-0.0733,-0.0728,-0.0723,-0.0724,-0.0695,-0.0736,-0.0722,-0.0686,-0.0753,-0.0718,-0.0756,-0.0788,-0.0773,-0.0773,-0.0793,-0.0754,-0.0781,-0.0774,-0.0741,-0.0738,-0.0723,-0.071,-0.0881,-0.0881,-0.0881,0,0,-0.0687,-0.0703,-0.0675,-0.0672,-0.0666,-0.0665,-0.0658,-0.066,-0.065,-0.0633,-0.0665,-0.0677,-0.0701,-0.0704,-0.0713,-0.0668,-0.0707,-0.0685,-0.0588,-0.0583,-0.057,-0.0558,-0.0574,-0.0564,-0.0676,-0.0676,-0.0675,0,-0.067,-0.0628,-0.0665,-0.0633,-0.0607,-0.0644,-0.0588,-0.0588,-0.0586,-0.0553,-0.0604,-0.0606,-0.0659,-0.061,-0.0602,-0.0642,-0.065,-0.0625,-0.0567,-0.0556,-0.0546,-0.0565,-0.0556,-0.067,-0.0671,-0.0671,-0.0672,0,-0.0606,-0.0565,-0.0545,-0.0509,-0.0495,-0.0453,-0.0452,-0.0429,-0.0435,-0.0426,-0.0391,-0.0462,-0.0454,-0.0488,-0.0535,-0.0481,-0.0516,-0.0558,-0.0588,-0.0523,-0.0549,-0.0541,-0.0662,-0.0664,-0.0665,-0.0667,0,0,-0.0554,-0.0506,-0.049,-0.0427,-0.0417,-0.0375,-0.0326,-0.026,-0.0178,-0.0226,-0.0126,-0.0201,-0.0241,-0.0255,-0.0324,-0.0335,-0.031,-0.0408,-0.041,-0.0408,-0.0301,-0.0438,-0.0444,-0.0335,-0.0333,-0.0331,-0.0354,0,-0.0471,-0.0369,-0.0371,-0.0239,-0.0175,-0.018,-0.0111,-0.0067,-0.0046,0.0033,-0.0037,0.0013,-0.015,-0.0133,-0.0179,-0.0253,-0.0281,-0.03,-0.0377,-0.0379,-0.0496,-0.0437,-0.0381,-0.0405,-0.0347,-0.0345,-0.0345,0,-0.0383,-0.032,-0.0187,-0.0055,-0.0025,0.0041,0.0178,0.0241,0.0307,0.0324,0.0327,0.0278,0.0256,0.0107,-0.0008,-0.0007,-0.0143,-0.023,-0.0234,-0.0386,-0.0501,-0.046,-0.0395,-0.0333,-0.0334,-0.0335,-0.0335,0,-0.0284,-0.0165,-0.0038,-0.0004,0.0109,0.019,0.0259,0.034,0.0445,0.0531,0.0608,0.0543,0.0542,0.0382,0.0145,0.0093,0.0022,-0.0076,-0.033,-0.0342,-0.0322,-0.0337,-0.0151,-0.0151,-0.0151,-0.0151,-0.0151,0,-0.0168,-0.0051,0.0027,0.0106,0.0291,0.0317,0.0524,0.058,0.0696,0.0859,0.0771,0.0859,0.0614,0.052,0.0271,-0.0002,0.0106,-0.0287,-0.0344,-0.0288,-0.0299,-0.0259,-0.0271,-0.0152,-0.0152,-0.0151,-0.0151,0,-0.0046,-0.0003,0.0163,0.0293,0.0353,0.049,0.0687,0.0831,0.0915,0.1122,0.1165,0.1127,0.099,0.0717,0.0474,0.0168,-0.007,-0.0201,-0.0139,-0.0192,-0.0473,-0.0479,-0.0475,-0.048,-0.0484,-0.0487,-0.049,0,0.0037,0.0127,0.0301,0.0408,0.0483,0.0675,0.0816,0.0938,0.1091,0.1286,0.1396,0.1336,0.125,0.0821,0.0376,-0.0058,-0.0101,-0.0333,-0.0459,-0.0443,-0.0499,-0.0499,-0.0499,-0.0381,-0.0382,-0.0384,-0.0385,0,0.0199,0.0248,0.0373,0.057,0.0736,0.0943,0.1143,0.1296,0.1466,0.1606,0.1766,0.1713,0.129,0.0837,0.021,-0.0072,-0.0268,-0.0386,-0.0301,-0.0345,-0.0366,-0.0419,-0.0419,-0.0397,-0.0396,-0.0395,-0.0394,-0.0394,0.0317,0.042,0.0562,0.0763,0.0947,0.1193,0.1384,0.158,0.1825,0.1977,0.1915,0.1767,0.1273,0.0404,0.0022,-0.0363,-0.0417,-0.061,-0.0599,-0.0587,-0.061,-0.0642,-0.0727,-0.0728,-0.0729,-0.0729,-0.0729,0,0.0451,0.056,0.0746,0.0986,0.1203,0.1276,0.1593,0.178,0.2057,0.2024,0.2016,0.1441,0.0912,0.0454,-0.0155,-0.0601,-0.0551,-0.0688,-0.053,-0.0519,-0.0509,-0.0521,-0.0618,-0.0618,-0.0618,-0.0618,0,0,0.0531,0.0713,0.0802,0.1167,0.1338,0.1646,0.1833,0.2084,0.2155,0.2056,0.1845,0.1472,0.0931,0.0478,-0.0012,-0.028,-0.0287,-0.0323,-0.0384,-0.0128,-0.0111,-0.0455,-0.0463,0,0,0,0,0]}],[{"header":{"parameterUnit":"m.s-1","parameterCategory":2,"la1":30.2991,"la2":30.254,"lo1":-89.0895,"lo2":-89.0444,"dy":0.0017,"dx":0.0017,"nx":28,"ny":28,"refTime":"2023-08-12T09:00:00:Z","depth":"4","parameterNumber":2,"parameterNumberName":"U-component_of_CURRENTS"},"data":[0,0,0,0,0,0,0,0,0,0,0,0,0,0,0,0,0,0,0,0,0,0,0,0,0,0,0,0,0,0,0,0,0,0,0,0,0,0,0,0,0,0,0,0,0,0,0,0,0,0,0,0,0,0,0,0,0,0,0.1036,0.1037,0,0.1075,0.1075,0.1075,0.1118,0.1119,0.112,0.1121,0.1169,0.1169,0.1169,0,0,0,0,0,0,0,0,0,0,0,0,0,0.0919,0.0921,0.1036,0.1037,0.1038,0.1075,0.1075,0.1075,0.1117,0.1119,0.1121,0.1122,0.1169,0.1169,0.1169,0,0,0,0,0,0,0,0,0,0,0,0,0,0.0959,0.0922,0.1036,0.1069,0.1073,0.1075,0.1075,0.1075,0.1117,0.1119,0.1121,0.1123,0.1169,0.1169,0.1169,0.1132,0,0,0.117,0.117,0,0,0,0,0,0,0,0,0.0957,0.0962,0.1063,0.1067,0.1071,0.11,0.1052,0.1097,0.1117,0.1093,0.1121,0.1124,0.115,0.1152,0.1144,0.1134,0.1136,0.117,0.117,0.117,0.117,0,0,0,0,0,0,0,0.0954,0.096,0.1044,0.1064,0.1069,0.1056,0.1064,0.106,0.1105,0.1095,0.11,0.1115,0.1152,0.1144,0.1146,0.1137,0.117,0.117,0.117,0.117,0.1219,0.122,0,0,0,0,0,0,0.0966,0.0958,0.1043,0.1046,0.1026,0.1058,0.1066,0.1083,0.1105,0.1112,0.1114,0.1117,0.1143,0.1146,0.1148,0.1217,0.117,0.117,0.117,0.1218,0.1219,0.1221,0,0,0,0,0,0,0.0963,0.0973,0.1042,0.1008,0.1017,0.1059,0.1077,0.1083,0.1111,0.112,0.1126,0.1141,0.1145,0.1148,0.1177,0.1215,0.117,0.117,0.1216,0.1218,0.122,0.1283,0,0,0,0,0,0,0.0959,0.0972,0.1003,0.1009,0.102,0.1058,0.1076,0.1082,0.1119,0.1125,0.1145,0.1149,0.1146,0.1177,0.1177,0.1215,0.117,0.1215,0.1217,0.1219,0.128,0.1287,0.1293,0,0,0,0,0,0.0955,0.0979,0.1004,0.1016,0.1057,0.1059,0.1062,0.1092,0.1119,0.1125,0.1151,0.1151,0.1192,0.1177,0.1177,0.1216,0.1214,0.1217,0.1219,0.1276,0.1286,0.1293,0,0,0,0,0,0,0.0942,0.0987,0.1014,0.1052,0.1067,0.1069,0.1084,0.1107,0.1129,0.1154,0.1156,0.1162,0.1207,0.1196,0.1179,0.1237,0.1206,0.1209,0.125,0.1258,0.1265,0.1295,0.117,0,0,0,0,0,0.0956,0.099,0.1017,0.1048,0.1056,0.1076,0.109,0.1117,0.1133,0.1147,0.1168,0.1192,0.1209,0.1223,0.1235,0.1254,0.126,0.1282,0.1289,0.1295,0.132,0.1347,0.1359,0.123,0.123,0.123,0,0,0.0962,0.0991,0.1013,0.1049,0.1059,0.1077,0.1087,0.1118,0.1154,0.1147,0.1204,0.1219,0.1221,0.1256,0.1275,0.1256,0.1334,0.1298,0.1303,0.1326,0.1352,0.1364,0.1376,0.1232,0.1231,0.1231,0,0,0.0963,0.1009,0.1029,0.1047,0.1087,0.1099,0.1117,0.1147,0.1182,0.1228,0.1243,0.1287,0.1304,0.1323,0.1329,0.1378,0.1373,0.138,0.1438,0.1464,0.1475,0.1485,0.1507,0.1519,0.138,0.138,0.1381,0,0.0963,0.1007,0.1031,0.105,0.108,0.1113,0.1139,0.1165,0.1214,0.125,0.1263,0.1326,0.1341,0.1379,0.1414,0.1398,0.1407,0.1405,0.1474,0.1484,0.1493,0.1514,0.1525,0.1384,0.1383,0.1383,0.1383,0,0.097,0.1019,0.1024,0.107,0.11,0.1126,0.1174,0.122,0.1276,0.1314,0.1386,0.1405,0.1442,0.1457,0.146,0.1529,0.1512,0.1482,0.1454,0.151,0.1528,0.1539,0.1389,0.1387,0.1386,0.1386,0,0,0.0916,0.1013,0.1018,0.106,0.1125,0.1143,0.121,0.1273,0.1327,0.139,0.1457,0.1513,0.1538,0.1548,0.155,0.1592,0.1676,0.158,0.158,0.1606,0.1738,0.161,0.1609,0.1655,0.1657,0.1659,0.1724,0,0.0909,0.0968,0.1023,0.1085,0.1117,0.1185,0.1244,0.1319,0.138,0.1451,0.1503,0.1576,0.1561,0.1607,0.1635,0.1681,0.171,0.1662,0.1678,0.1679,0.1561,0.1619,0.1666,0.1732,0.1734,0.1736,0.1737,0,0.089,0.094,0.1011,0.1121,0.1141,0.1193,0.13,0.1367,0.1469,0.1522,0.1585,0.1629,0.1722,0.1696,0.1777,0.1748,0.1757,0.1777,0.1778,0.1649,0.1572,0.1664,0.1757,0.1756,0.1754,0.1753,0.1752,0,0.0831,0.0931,0.1,0.1033,0.1152,0.1213,0.1294,0.1401,0.1473,0.1595,0.1649,0.1724,0.1795,0.1823,0.1853,0.1843,0.1919,0.1894,0.1773,0.1764,0.1832,0.182,0.1938,0.1938,0.1938,0.1938,0.1937,0,0.0794,0.0843,0.0991,0.1014,0.1107,0.1218,0.1319,0.1398,0.153,0.1616,0.1694,0.1744,0.184,0.1876,0.1882,0.1852,0.1928,0.1807,0.1778,0.1855,0.1846,0.1839,0.1827,0.194,0.1939,0.1939,0.1939,0,0.0715,0.0807,0.0885,0.103,0.1079,0.1161,0.1335,0.1404,0.154,0.165,0.1712,0.1815,0.1878,0.1899,0.1966,0.1887,0.1883,0.1836,0.1925,0.1896,0.1712,0.1703,0.1755,0.1751,0.1748,0.1745,0.1743,0,0.0686,0.0719,0.0873,0.0929,0.1001,0.1137,0.1219,0.1389,0.1462,0.1666,0.1698,0.1825,0.1865,0.1829,0.1868,0.1848,0.1807,0.1794,0.1764,0.173,0.1697,0.1693,0.1688,0.1737,0.1737,0.1736,0.1735,0,0.0614,0.0681,0.0743,0.0856,0.0954,0.1057,0.1195,0.1241,0.1448,0.1571,0.1668,0.1719,0.1756,0.1777,0.1749,0.1728,0.1813,0.176,0.1767,0.1739,0.171,0.1679,0.1678,0.1724,0.1725,0.1726,0.1727,0,0.0561,0.0593,0.0684,0.0779,0.0889,0.0966,0.1048,0.1164,0.127,0.1504,0.1534,0.164,0.176,0.1712,0.1691,0.1658,0.1648,0.1601,0.1616,0.1629,0.155,0.1492,0.1434,0,0,0,0,0,0.0519,0.0537,0.0604,0.0707,0.0811,0.0879,0.1023,0.1114,0.1301,0.1339,0.1448,0.1487,0.1523,0.1561,0.15,0.1606,0.1623,0.1528,0.1568,0.1661,0.1674,0.1588,0,0,0,0,0,0,0.048,0.0531,0.0565,0.0628,0.0685,0.0793,0.0882,0.101,0.1037,0.1229,0.1237,0.1396,0.1412,0.1534,0.147,0.148,0.1476,0.16,0.1597,0.1653,0.1665,0.1676,0.1592,0,0,0,0,0]},{"header":{"parameterUnit":"m.s-1","parameterCategory":2,"la1":30.2991,"la2":30.254,"lo1":-89.0895,"lo2":-89.0444,"dy":0.0017,"dx":0.0017,"nx":28,"ny":28,"refTime":"2023-08-12T09:00:00:Z","depth":"4","parameterNumber":3,"parameterNumberName":"V-component_of_CURRENTS"},"data":[0,0,0,0,0,0,0,0,0,0,0,0,0,0,0,0,0,0,0,0,0,0,0,0,0,0,0,0,0,0,0,0,0,0,0,0,0,0,0,0,0,0,0,0,0,0,0,0,0,0,0,0,0,0,0,0,0,0,-0.002,-0.002,0,-0.0071,-0.0071,-0.0072,-0.0091,-0.0091,-0.0091,-0.0091,-0.0182,-0.0185,-0.0188,0,0,0,0,0,0,0,0,0,0,0,0,0,0.0049,0.0048,-0.002,-0.002,-0.0021,-0.0071,-0.0071,-0.0072,-0.0091,-0.0091,-0.0091,-0.0091,-0.0182,-0.0185,-0.0188,0,0,0,0,0,0,0,0,0,0,0,0,0,0.0011,0.0047,-0.002,-0.0037,-0.0039,-0.007,-0.0071,-0.0072,-0.0091,-0.0091,-0.0091,-0.0091,-0.0181,-0.0184,-0.0188,-0.0217,0,0,-0.02,-0.0202,0,0,0,0,0,0,0,0,0.0013,0.0008,-0.0033,-0.0035,-0.0038,-0.0074,-0.0081,-0.0123,-0.0092,-0.0072,-0.0091,-0.0091,-0.015,-0.0156,-0.0166,-0.0222,-0.0225,-0.02,-0.0203,-0.0205,-0.0206,0,0,0,0,0,0,0,0.0015,0.001,-0.004,-0.0034,-0.0037,-0.0045,-0.0051,-0.0089,-0.0113,-0.0073,-0.0075,-0.008,-0.0152,-0.0162,-0.0169,-0.0227,-0.02,-0.0204,-0.0206,-0.0208,-0.0326,-0.0327,0,0,0,0,0,0,0.0022,0.0012,-0.0039,-0.0042,-0.0011,-0.0047,-0.0053,-0.0063,-0.0111,-0.0118,-0.008,-0.0081,-0.0156,-0.0164,-0.0172,-0.0205,-0.0204,-0.0208,-0.021,-0.0325,-0.0326,-0.0327,0,0,0,0,0,0,0.0024,0.0018,-0.0036,-0.0015,-0.0023,-0.0048,-0.006,-0.0064,-0.0079,-0.0116,-0.0124,-0.0091,-0.0156,-0.0167,-0.0209,-0.0209,-0.021,-0.0213,-0.0324,-0.0325,-0.0326,-0.0274,0,0,0,0,0,0,0.0026,0.0019,0.0004,-0.0015,-0.0024,-0.0047,-0.006,-0.0065,-0.0082,-0.0083,-0.0128,-0.0136,-0.0157,-0.0203,-0.0213,-0.0214,-0.0216,-0.0323,-0.0325,-0.0326,-0.0275,-0.0273,-0.0272,0,0,0,0,0,0.0028,0.0021,0.0004,-0.0003,-0.004,-0.0046,-0.0051,-0.0069,-0.0083,-0.0083,-0.0121,-0.0134,-0.0219,-0.0207,-0.0218,-0.0221,-0.0322,-0.0324,-0.0326,-0.0275,-0.0273,-0.0272,0,0,0,0,0,0,0.0037,0.0018,-0.0001,-0.0018,-0.0031,-0.0049,-0.0051,-0.0072,-0.0102,-0.0109,-0.0147,-0.0157,-0.0196,-0.0222,-0.0207,-0.0262,-0.0273,-0.0277,-0.0231,-0.0229,-0.0228,-0.022,-0.022,0,0,0,0,0,0.0032,0.0026,0.0003,-0.0011,-0.0011,-0.0036,-0.0046,-0.0061,-0.0086,-0.0099,-0.0131,-0.0172,-0.0212,-0.023,-0.0268,-0.0299,-0.0335,-0.0309,-0.0308,-0.0306,-0.031,-0.0376,-0.038,-0.0333,-0.0333,-0.0333,0,0,0.0033,0.0019,0.0014,-0.0009,-0.0017,-0.0013,-0.004,-0.0048,-0.0056,-0.0106,-0.0127,-0.0172,-0.0223,-0.0253,-0.0272,-0.0273,-0.0337,-0.0309,-0.0307,-0.0311,-0.0378,-0.0382,-0.0386,-0.0334,-0.0334,-0.0334,0,0,0.0054,0.0022,0.0036,0.0027,0.0012,-0.0003,-0.0005,-0.0028,-0.0045,-0.0077,-0.0118,-0.0166,-0.0216,-0.0252,-0.0278,-0.0298,-0.0332,-0.0307,-0.0287,-0.035,-0.0355,-0.0359,-0.0393,-0.0401,-0.03,-0.03,-0.03,0,0.0064,0.0059,0.0037,0.005,0.0044,0.0007,0.0019,-0.0004,-0.0044,-0.0066,-0.0076,-0.0176,-0.0216,-0.0268,-0.0271,-0.0294,-0.0326,-0.0283,-0.0347,-0.0352,-0.0357,-0.0392,-0.0401,-0.0298,-0.0298,-0.0298,-0.0299,0,0.0094,0.0089,0.0101,0.0102,0.0092,0.0095,0.0066,0.0045,0.0012,-0.0023,-0.0084,-0.0146,-0.0204,-0.0225,-0.0252,-0.0308,-0.0317,-0.0339,-0.0344,-0.0359,-0.0395,-0.0405,-0.0295,-0.0295,-0.0296,-0.0297,0,0,0.0138,0.0129,0.0134,0.0136,0.0116,0.0115,0.01,0.007,0.0047,-0.0004,-0.0044,-0.0117,-0.0162,-0.0197,-0.0244,-0.0297,-0.0356,-0.0326,-0.033,-0.0348,-0.0477,-0.0444,-0.0452,-0.0387,-0.0389,-0.0391,-0.048,0,0.0177,0.0205,0.0185,0.0203,0.0215,0.0172,0.0161,0.0119,0.007,0.0021,-0.0059,-0.0114,-0.0147,-0.018,-0.0239,-0.0338,-0.0384,-0.0328,-0.0473,-0.0477,-0.0436,-0.0464,-0.0397,-0.0488,-0.0491,-0.0493,-0.0494,0,0.0215,0.0227,0.0256,0.0244,0.0247,0.025,0.021,0.0192,0.011,0.0068,-0.0004,-0.0075,-0.0164,-0.0192,-0.0346,-0.0308,-0.0385,-0.0454,-0.046,-0.0457,-0.0464,-0.048,-0.0513,-0.0512,-0.051,-0.0509,-0.0508,0,0.0251,0.0272,0.0293,0.0293,0.0279,0.028,0.027,0.0207,0.0187,0.0095,0.006,-0.0059,-0.012,-0.024,-0.0375,-0.0368,-0.0545,-0.0556,-0.0594,-0.0592,-0.0615,-0.061,-0.0664,-0.0664,-0.0663,-0.0663,-0.0663,0,0.0285,0.0301,0.0317,0.0326,0.0349,0.0324,0.0322,0.0286,0.0231,0.0206,0.0093,0.0039,-0.0139,-0.026,-0.0376,-0.0513,-0.0546,-0.0598,-0.0621,-0.0589,-0.058,-0.0622,-0.0615,-0.0667,-0.0666,-0.0665,-0.0665,0,0.0301,0.0313,0.034,0.0354,0.0365,0.0378,0.038,0.037,0.0316,0.0277,0.0252,0.0101,-0.0058,-0.0227,-0.0434,-0.0503,-0.0646,-0.0683,-0.0622,-0.0639,-0.0646,-0.0636,-0.0735,-0.0735,-0.0735,-0.0735,-0.0735,0,0.0303,0.0327,0.0368,0.0392,0.0402,0.0426,0.0441,0.0415,0.0404,0.0318,0.0299,0.014,0.0028,-0.0231,-0.0414,-0.0633,-0.0656,-0.0712,-0.0694,-0.0645,-0.0658,-0.0648,-0.0639,-0.0734,-0.0734,-0.0734,-0.0734,0,0.0314,0.0336,0.0359,0.0418,0.0453,0.0479,0.05,0.0502,0.0467,0.0433,0.0337,0.0188,0.0007,-0.0213,-0.0386,-0.0542,-0.0671,-0.0711,-0.0712,-0.0695,-0.0645,-0.0656,-0.0647,-0.0733,-0.0734,-0.0734,-0.0734,0,0.032,0.0339,0.0385,0.043,0.0478,0.0504,0.0517,0.0511,0.0501,0.0426,0.0398,0.0196,0.0078,-0.0166,-0.0328,-0.0481,-0.0512,-0.0535,-0.0546,-0.0549,-0.0468,-0.0375,-0.0407,0,0,0,0,0,0.0323,0.0346,0.0391,0.0435,0.0485,0.0511,0.0539,0.0544,0.0533,0.0487,0.0446,0.0284,0.0031,-0.0103,-0.0249,-0.0337,-0.0551,-0.0511,-0.0584,-0.073,-0.073,-0.0665,0,0,0,0,0,0,0.0321,0.0364,0.0385,0.0435,0.0466,0.0514,0.0533,0.0529,0.0497,0.047,0.0326,0.0276,0.001,0.0115,-0.0245,-0.0295,-0.0352,-0.0634,-0.0636,-0.0729,-0.073,-0.0731,-0.0663,0,0,0,0,0]}]]